Zurück zum Katalog

STARLINK-36197

AktivKommunikationVLEO
NORAD 67205·PAYLOAD·🇺🇸 United States

Gestartet Dec 17, 2025 von Vandenberg Space Force Base

Loading…

Nächste Überflüge (nächste 24 Stunden)

TLE

AktuellSource: CelesTrak SupGP

Epoche: Sep 14, 2026, 15:01 UTC

1 67205C 25304P   26257.62618056 -.00040765  00000+0 -34162-2 0  2578
2 67205  70.0012  57.9291 0002848 265.6508 294.6230 14.98352353    19

Verfolge STARLINK-36197 in Echtzeit mit AllMySat

Download on the App Store